Back to catalog

COSMOS 540

AliveMilitaryLEO
NORAD 6323·PAYLOAD·🇷🇺 Russia

Launched Dec 25, 1972 from Plesetsk Cosmodrome

Loading…

Next Passes (next 24 hours)

TLE

FreshSource: Space-Track

Epoch: Sep 14, 2026, 12:38 UTC

1 06323U 72104A   26257.52638900  .00000107  00000-0  44386-4 0  9990
2 06323  74.0796 295.6977 0018794 240.9492 118.9780 14.37530928811852

Track COSMOS 540 in real time with AllMySat

Download on the App Store